Location: Ailly
(50.0793°N, 1.9944°E)
Time: 21:28:27
(UTC+00:00)

Cosmos 304 Rocket - Pass Details

Date: 15 January 2026
Orbit: 669 x 676 km, 74.0° (Epoch: 18 February)

Event Time Altitude Azimuth Distance (km) Brightness Sun altitude
Rises 07:01:55 0° 194° (SSW) 3,015 7.2 -6.9°
Reaches altitude 10° 07:04:13 10° 192° (SSW) 2,106 6.5 -6.6°
Maximum altitude 07:08:55 67° 110° (ESE) 734 4.2 -5.9°
Drops below altitude 10° 07:13:39 10° 28° (NNE) 2,122 6.3 -5.2°
Sets 07:15:58 0° 26° (NNE) 3,041 7.1 -4.9°
